Weather History for KCJR - November, 2012

Change the Weather History Date:

Thursday, November 29, 2012

  Actual Average (KOMH) Record (KOMH)
Temperature  
Mean Temperature 36 °F -  
Max Temperature 51 °F 56 °F 72 °F (1989)
Min Temperature 21 °F 34 °F 9 °F (1955)
Degree Days  
Heating Degree Days 29    
Moisture  
Dew Point 24 °F    
Average Humidity 74    
Maximum Humidity 100    
Minimum Humidity 30    
Precipitation  
Precipitation 0.00 in - - ()
Sea Level Pressure  
Sea Level Pressure 30.39 in    
Wind  
Wind Speed 1 mph (SW)    
Max Wind Speed 7 mph    
Max Gust Speed -    
Visibility 10 miles    
Events      
Averages and records for this station are not official NWS values.
T = Trace of Precipitation, MM = Missing Value Source: NWS Daily Summary

Daily Weather History Graph

Daily Weather History Graph

Search for Another Location

Airport or City:

Trip Planner

Search our weather history database for the weather conditions in past years. The results will help you decide how hot, cold, wet, or windy it might be!

Date:

Astronomy

Nov. 29, 2012 Rise Set
Actual Time 7:08 AM EST 4:51 PM EST
Civil Twilight 6:39 AM EST 5:20 PM EST
Nautical Twilight 6:06 AM EST 5:53 PM EST
Astronomical Twilight 5:34 AM EST 6:25 PM EST
Moon 5:52 PM EST (11/29) 7:53 AM EST (11/29)
Length of Visible Light 10h 41m
Length of Day
9h 42m
Full, 99% of the Moon is Illuminated
Nov 29
Full
Dec 6
Last Quarter
Dec 13
New
Dec 20
First Quarter
Dec 28
Full

Hourly Weather History & Observations

Time (EST) Temp. Windchill Dew Point Humidity Pressure Visibility Wind Dir Wind Speed Gust Speed Precip Events Conditions
12:15 AM 24.8 °F - 21.2 °F 86% 30.38 in 10.0 mi Calm Calm - N/A   Clear
12:35 AM 24.8 °F - 21.2 °F 86% 30.39 in 10.0 mi Calm Calm - N/A   Clear
12:55 AM 26.6 °F - 21.2 °F 80% 30.38 in 10.0 mi Calm Calm - N/A   Clear
1:15 AM 24.8 °F 19.1 °F 21.2 °F 86% 30.38 in 10.0 mi North 4.6 mph - N/A   Clear
1:35 AM 24.8 °F 19.1 °F 19.4 °F 80% 30.38 in 10.0 mi North 4.6 mph - N/A   Clear
1:55 AM 23.0 °F - 19.4 °F 86% 30.38 in 10.0 mi Calm Calm - N/A   Clear
2:15 AM 24.8 °F - 21.2 °F 86% 30.39 in 10.0 mi Calm Calm - N/A   Clear
2:35 AM 23.0 °F - 21.2 °F 93% 30.40 in 10.0 mi Calm Calm - N/A   Clear
2:55 AM 21.2 °F - 19.4 °F 93% 30.39 in 10.0 mi Calm Calm - N/A   Clear
3:15 AM 21.2 °F - 21.2 °F 100% 30.40 in 10.0 mi Calm Calm - N/A   Clear
3:35 AM 21.2 °F - 21.2 °F 100% 30.40 in 10.0 mi Calm Calm - N/A   Clear
3:55 AM 21.2 °F - 19.4 °F 93% 30.39 in 10.0 mi Calm Calm - N/A   Clear
4:35 AM 21.2 °F - 21.2 °F 100% 30.40 in 10.0 mi Calm Calm - N/A   Clear
4:55 AM 21.2 °F - 19.4 °F 93% 30.40 in 10.0 mi Calm Calm - N/A   Clear
5:15 AM 21.2 °F 16.4 °F 19.4 °F 93% 30.40 in 10.0 mi North 3.5 mph - N/A   Clear
5:35 AM 21.2 °F - 21.2 °F 100% 30.40 in 10.0 mi Calm Calm - N/A   Clear
5:55 AM 21.2 °F 16.4 °F 21.2 °F 100% 30.41 in 10.0 mi NNE 3.5 mph - N/A   Clear
6:15 AM 21.2 °F - 21.2 °F 100% 30.42 in 10.0 mi Calm Calm - N/A   Clear
6:35 AM 21.2 °F - 21.2 °F 100% 30.42 in 10.0 mi Calm Calm - N/A   Clear
6:55 AM 21.2 °F - 19.4 °F 93% 30.43 in 10.0 mi Calm Calm - N/A   Clear
7:15 AM 21.2 °F - 21.2 °F 100% 30.43 in 10.0 mi Calm Calm - N/A   Clear
7:35 AM 21.2 °F - 21.2 °F 100% 30.44 in 10.0 mi Calm Calm - N/A   Clear
7:55 AM 24.8 °F - 23.0 °F 93% 30.44 in 10.0 mi Calm Calm - N/A   Clear
8:15 AM 26.6 °F 22.6 °F 24.8 °F 93% 30.44 in 10.0 mi North 3.5 mph - N/A   Clear
8:35 AM 28.4 °F - 26.6 °F 93% 30.45 in 10.0 mi Calm Calm - N/A   Clear
8:55 AM 30.2 °F - 26.6 °F 86% 30.46 in 10.0 mi Calm Calm - N/A   Clear
9:15 AM 35.6 °F - 26.6 °F 70% 30.47 in 10.0 mi Calm Calm - N/A   Clear
9:35 AM 37.4 °F - 28.4 °F 70% 30.47 in 10.0 mi Calm Calm - N/A   Clear
9:55 AM 39.2 °F 35.9 °F 28.4 °F 65% 30.47 in 10.0 mi SSW 4.6 mph - N/A   Clear
10:15 AM 42.8 °F 40.1 °F 28.4 °F 57% 30.47 in 10.0 mi SW 4.6 mph - N/A   Clear
10:35 AM 44.6 °F 43.1 °F 28.4 °F 53% 30.48 in 10.0 mi SW 3.5 mph - N/A   Clear
10:55 AM 44.6 °F 43.1 °F 28.4 °F 53% 30.47 in 10.0 mi WSW 3.5 mph - N/A   Clear
11:15 AM 46.4 °F 44.3 °F 26.6 °F 46% 30.46 in 10.0 mi SW 4.6 mph - N/A   Clear
11:35 AM 48.2 °F - 24.8 °F 40% 30.45 in 10.0 mi South 5.8 mph - N/A   Clear
11:55 AM 48.2 °F - 24.8 °F 40% 30.44 in 10.0 mi SSW 6.9 mph - N/A   Clear
12:15 PM 48.2 °F - 24.8 °F 40% 30.43 in 10.0 mi South 3.5 mph - N/A   Clear
12:35 PM 48.2 °F - 24.8 °F 40% 30.42 in 10.0 mi South 5.8 mph - N/A   Clear
12:55 PM 48.2 °F - 24.8 °F 40% 30.40 in 10.0 mi SW 5.8 mph - N/A   Clear
1:15 PM 50.0 °F - 24.8 °F 37% 30.40 in 10.0 mi Calm Calm - N/A   Clear
1:35 PM 51.8 °F - 24.8 °F 35% 30.38 in 10.0 mi South 6.9 mph - N/A   Clear
1:55 PM 51.8 °F - 24.8 °F 35% 30.38 in 10.0 mi SW 6.9 mph - N/A   Clear
2:15 PM 51.8 °F - 23.0 °F 33% 30.37 in 10.0 mi SW 4.6 mph - N/A   Clear
2:35 PM 51.8 °F - 23.0 °F 33% 30.36 in 10.0 mi WSW 6.9 mph - N/A   Clear
2:55 PM 51.8 °F - 24.8 °F 35% 30.36 in 10.0 mi SW 5.8 mph - N/A   Clear
3:15 PM 51.8 °F - 21.2 °F 30% 30.35 in 10.0 mi SW 5.8 mph - N/A   Clear
3:35 PM 50.0 °F - 21.2 °F 32% 30.36 in 10.0 mi SSW 5.8 mph - N/A   Clear
3:55 PM 50.0 °F - 21.2 °F 32% 30.35 in 10.0 mi SSW 5.8 mph - N/A   Clear
4:15 PM 50.0 °F - 21.2 °F 32% 30.35 in 10.0 mi SSW 3.5 mph - N/A   Clear
4:35 PM 48.2 °F - 23.0 °F 37% 30.35 in 10.0 mi Calm Calm - N/A   Clear
4:55 PM 42.8 °F - 24.8 °F 49% 30.35 in 10.0 mi Calm Calm - N/A   Clear
5:15 PM 41.0 °F - 24.8 °F 53% 30.35 in 10.0 mi Calm Calm - N/A   Clear
5:35 PM 35.6 °F - 28.4 °F 75% 30.36 in 10.0 mi Calm Calm - N/A   Clear
5:55 PM 35.6 °F - 26.6 °F 70% 30.36 in 10.0 mi Calm Calm - N/A   Clear
6:15 PM 33.8 °F - 26.6 °F 75% 30.36 in 10.0 mi Calm Calm - N/A   Clear
6:35 PM 33.8 °F - 26.6 °F 75% 30.36 in 10.0 mi Calm Calm - N/A   Clear
6:55 PM 33.8 °F - 26.6 °F 75% 30.36 in 10.0 mi Calm Calm - N/A   Clear
7:15 PM 30.2 °F - 26.6 °F 86% 30.36 in 10.0 mi Calm Calm - N/A   Clear
7:35 PM 30.2 °F - 26.6 °F 86% 30.36 in 10.0 mi Calm Calm - N/A   Clear
7:55 PM 30.2 °F - 26.6 °F 86% 30.37 in 10.0 mi Calm Calm - N/A   Clear
8:15 PM 30.2 °F - 26.6 °F 86% 30.37 in 10.0 mi Calm Calm - N/A   Clear
8:35 PM 30.2 °F - 28.4 °F 93% 30.36 in 10.0 mi Calm Calm - N/A   Clear
8:55 PM 30.2 °F - 26.6 °F 86% 30.36 in 10.0 mi Calm Calm - N/A   Clear
9:15 PM 28.4 °F - 26.6 °F 93% 30.36 in 10.0 mi Calm Calm - N/A   Clear
9:35 PM 28.4 °F - 26.6 °F 93% 30.36 in 10.0 mi Calm Calm - N/A   Clear
9:55 PM 28.4 °F - 24.8 °F 86% 30.36 in 10.0 mi Calm Calm - N/A   Clear
10:15 PM 28.4 °F - 26.6 °F 93% 30.36 in 10.0 mi Calm Calm - N/A   Clear
10:35 PM 26.6 °F - 26.6 °F 100% 30.34 in 10.0 mi Calm Calm - N/A   Clear
10:55 PM 26.6 °F - 26.6 °F 100% 30.34 in 10.0 mi Calm Calm - N/A   Clear
11:15 PM 26.6 °F - 26.6 °F 100% 30.34 in 10.0 mi Calm Calm - N/A   Clear
11:35 PM 26.6 °F - 26.6 °F 100% 30.33 in 10.0 mi Calm Calm - N/A   Clear
11:55 PM 26.6 °F - 24.8 °F 93% 30.33 in 10.0 mi Calm Calm - N/A   Clear